Location: Te Maire Creek
(41.1333°S, 175.9167°E)
Time: 00:44:48
(UTC+00:00)

COSMOS 2428 - Pass Details

Date: 19 May 2024
Orbit: 844 x 856 km, 70.9° (Epoch: 18 June)

Event Time Altitude Azimuth Distance (km) Brightness Sun altitude
Rises 18:33:05 0° 357° (N) 3,410 6.1 -9.4°
Reaches altitude 10° 18:35:37 10° 4° (N) 2,484 5.5 -8.9°
Maximum altitude 18:41:00 44° 74° (ENE) 1,185 4.2 -8.0°
Drops below altitude 10° 18:46:26 10° 144° (SE) 2,519 5.4 -7.0°
Sets 18:49:01 0° 149° (SSE) 3,463 6.0 -6.5°
